Location: Newark
(54.3386°S, 169.8415°W)
Time: 01:45:04
(UTC+00:00)

N. Korean satellite - Pass Details

Date: 20 October 2019
Orbit: 456 x 506 km, 97.2° (Epoch: 12 November)

Event Time Altitude Azimuth Distance (km) Brightness Sun altitude
Rises 07:05:12 0° 180° (S) 2,610 10.7 -8.3°
Reaches altitude 10° 07:08:21 10° 210° (SSW) 1,704 10.4 -8.7°
Maximum altitude 07:09:55 12° 235° (SW) 1,546 10.7 -8.9°
Drops below altitude 10° 07:11:28 10° 261° (W) 1,683 10.5 -9.1°
Sets 07:14:32 0° 291° (WNW) 2,540 10.8 -9.4°
